Find Starlink 1815

NORAD ID: 46713 Int'l Des: 2020-073 Owner: SPXS Country: US Constellation: starlink operational
LEOCIRCULAR

Live Position

Loading 3D Globe...

About Starlink 1815

Description loading...

Upcoming Passes

Passes for default location (London). Set your location on the main map for personalized predictions.

Altitude History

Loading altitude history...

Two-Line Element Set

1 46713U 20073AV 26107.14302792 .00112530 00000-0 64499-3 0 9994
2 46713 53.0440 11.2656 0005870 134.6574 225.4925 15.77978311303734
Epoch: Apr 17, 2026 • Age: 14 hours

Current Status

Altitude 336.3 km
Velocity 7.71 km/s
Sub-Earth Point 43.45°N, 32.99°E
Launch Date Oct 18, 2020
Age 5.4 years
Type internet

Technical Details

Classification Payload
Mass 260.00 kg
Dry Mass 248.00 kg
Total Mass 260.00 kg
Length 0.20 m
Diameter 2.80 m
Span 9.00 m
Shape Box + pan
Manufacturer SPXS
Bus Type Starlink
Phase Status In Orbit
Owner/State SPXS/US

Most Searched